Weather Roundup
Issued by NWS

Home | Current Version | Previous Version | Graphics & Text | Print | Product List | Glossary Off
Versions: 1 2 3 4 5 6 7 8 9 10 11 12 13 14 15 16 17 18 19 20 21 22 23 24 25 26 27 28 29 30 31 32 33 34 35 36 37 38 39 40 41 42 43 44 45 46 47 48 49 50

000
NZUS93 KARX 190359
HRRWXR

CURRENT HOURLY OBSERVATIONS ACROSS
MUCH OF THE UPPER MISSISSIPPI VALLEY
NATIONAL WEATHER SERVICE LA CROSSE WI
1100 PM CDT FRI APR 18 2014


...SOUTHEAST MINNESOTA...


CITY           SKY/WX    TMP DP  RH WIND       PRES   REMARKS
ROCHESTER      PTCLDY    42  29  59 SE13      30.20F
ROCHESTER/MAYO FAIR      46  26  45 E9        30.21F
WINONA         CLEAR     43  32  65 S3        30.26F
AUSTIN         PTCLDY    45  34  65 SE10      30.18F
ALBERT LEA     PTCLDY    46  34  61 SE13      30.17S
DODGE CENTER   MOCLDY    45  32  61 SE13      30.19F
PRESTON        CLEAR     45  29  54 SE9       30.22F
OWATONNA       MOCLDY    46  30  53 SE15G21   30.17S
FARIBAULT      MOCLDY    48  27  43 E9        30.19R
$$

...ELSEWHERE IN MINNESOTA...


CITY           SKY/WX    TMP DP  RH WIND       PRES   REMARKS
MINNEAPOLIS    MOCLDY    47  28  47 E14       30.21S
INTNL FALLS    CLOUDY    39  19  44 SE13G24   30.23S WCI  31
DULUTH         CLOUDY    32  21  64 E13       30.29S WCI  22
RED WING       CLEAR     46  27  46 E7        30.22S
REDWOOD FALLS  CLOUDY    49  34  56 SE15G24   30.06S
MANKATO        MOCLDY    46  34  61 SE20      30.14F
WORTHINGTON    CLOUDY    52  28  40 SE17      30.04S
FAIRMONT       CLOUDY    48  30  49 SE18      30.11F
$$

...SOUTHWEST WISCONSIN...


CITY           SKY/WX    TMP DP  RH WIND       PRES   REMARKS
LA CROSSE      CLEAR     48  27  44 E9        30.26S
PRAIRIE DU CHI CLEAR     49  28  44 E8        30.26S
BOSCOBEL       CLEAR     50  27  40 E9        30.29S
LONE ROCK      NOT AVBL
PLATTEVILLE    CLEAR     44  31  61 E13       30.28F
FORT MC COY    CLEAR     39  25  56 E3        30.30F
VIROQUA        FAIR      43  28  54 E7        30.27S
WIS DELLS      CLEAR     42  30  62 E7        30.31F
$$

...ELSEWHERE IN WISCONSIN...


CITY           SKY/WX    TMP DP  RH WIND       PRES   REMARKS
MILWAUKEE      CLEAR     34  28  79 CALM      30.40R
MADISON        PTCLDY    37  28  70 E10       30.36R WCI  30
GREEN BAY      CLEAR     34  26  72 E7        30.41R WCI  28
EAU CLAIRE     CLEAR     44  23  43 E10       30.27F
BLACK RVR FLS  FAIR      37  24  58 E5        30.28F WCI  34
MEDFORD        PTCLDY    39  19  43 E7        30.31S WCI  34
WAUSAU         CLEAR     38  25  59 E10       30.34R WCI  31
WIS RAPIDS     CLEAR     40  28  62 E14       30.35R WCI  32
MARSHFIELD     CLEAR     40  22  48 E12       30.31S WCI  33
RICE LAKE      MOCLDY    41  23  47 E7        30.29S
$$

...NORTHEAST IOWA...


CITY           SKY/WX    TMP DP  RH WIND       PRES   REMARKS
WATERLOO       MOCLDY    47  32  56 SE10      30.21F
DUBUQUE        CLEAR     47  31  53 E13       30.27F
DECORAH        MOCLDY    46  28  49 E9        30.24S
MASON CITY     CLEAR     46  32  58 SE15      30.17F
CHARLES CITY   MOCLDY    48  32  53 SE12      30.21F
OELWEIN        MOCLDY   N/A N/A N/A SE9       30.24S
$$

...ELSEWHERE IN IOWA...


CITY           SKY/WX    TMP DP  RH WIND       PRES   REMARKS
DES MOINES     PTCLDY    55  34  45 SE10      30.18S
IOWA CITY      MOCLDY    49  31  49 SE5       30.26R
FORT DODGE     CLOUDY    54  30  40 SE13G18   30.14S
MARSHALLTOWN   PTCLDY    46  31  55 SE10      30.18F
CEDAR RAPIDS   MOCLDY    45  31  58 E8        30.23S
$$

...NORTHERN ILLINOIS...


CITY           SKY/WX    TMP DP  RH WIND       PRES   REMARKS
CHICAGO-OHARE  CLEAR     38  25  59 E8        30.37F WCI  32
DUPAGE         CLEAR     37  28  70 NE8       30.35F WCI  31
CHICAGO-MIDWAY CLEAR     39  29  67 NE10      30.37F WCI  32
MOLINE         CLEAR     50  32  50 E13       30.26F
ROCKFORD       CLEAR     39  28  64 E8        30.37R WCI  33
STERLING       CLEAR     41  34  75 E20       30.32R
PEORIA         CLEAR     51  37  58 E15G22    30.29R
$$

NOTE: "FAIR" INDICATES FEW OR NO CLOUDS BELOW 12,000 FEET WITH NO
SIGNIFICANT WEATHER AND/OR OBSTRUCTIONS TO VISIBILITY. WIND
SPEEDS ARE IN MILES-PER-HOUR.



USA.gov is the U.S. government's official web portal to all federal, state and local government web resources and services.